Location: Observatory
(52.1446°N, 0.4624°W)
Time: 10:10:21
(UTC+01:00)

ISS - Pass Details

Date: 04 July 2020
Orbit: 417 x 420 km, 51.6° (Epoch: 02 July)

Event Time Altitude Azimuth Distance (km) Brightness Sun altitude
Exits shadow 02:23:02 13° 146° (SSE) 1,346 -1.6 -13.2°
Maximum altitude 02:23:24 13° 139° (SE) 1,337 -1.5 -13.1°
Drops below altitude 10° 02:24:58 10° 111° (ESE) 1,495 -1.0 -13.1°
Sets 02:27:58 0° 82° (E) 2,362 0.4 -12.9°
